Location: Navajo
(48.7922°N, 105.0603°W)
Time: 21:34:23
(UTC+00:00)

QB50P2 - Pass Details

Date: 05 July 2022
Orbit: 590 x 605 km, 97.9° (Epoch: 15 August)

Event Time Altitude Azimuth Distance (km) Brightness Sun altitude
Rises 07:14:05 0° 30° (NNE) 2,865 ? -18.4°
Reaches altitude 10° 07:17:09 10° 54° (NE) 1,958 ? -18.4°
Maximum altitude 07:19:36 15° 89° (E) 1,657 ? -18.4°
Enters shadow 07:21:29 12° 118° (ESE) 1,839 ? -18.3°
